• In Hungary
  • List of Countries
  • For 7 days
  • Water Temperature
  • Satellite Maps
  • Weather Map
  • News
  • Weather Widgets
  • user-avatar
    Login

    Hourly Weather Statesville

    Today, 24 September, Monday

    Time Temperature Precipitation Wind Pressure Humidity
    00:00 +19°C° 0.1 mm 2 mps 742 mmHg 95%
    01:00 +19°C° 0.1 mm 2 mps 742 mmHg 95%
    02:00 +19°C° 0.1 mm 2 mps 742 mmHg 95%
    03:00 +18°C° 0.1 mm 2 mps 742 mmHg 95%
    04:00 +18°C° 0.1 mm 2 mps 742 mmHg 95%
    05:00 +18°C° 0 mm 2 mps 742 mmHg 95%
    06:00 +18°C° 0 mm 2 mps 743 mmHg 95%
    07:00 +19°C° 0 mm 2 mps 743 mmHg 95%
    08:00 +19°C° 0 mm 2 mps 743 mmHg 93%
    09:00 +20°C° 0 mm 2 mps 744 mmHg 92%
    10:00 +20°C° 0 mm 2 mps 744 mmHg 91%
    11:00 +21°C° 0 mm 2 mps 744 mmHg 88%
    12:00 +23°C° 0 mm 2 mps 743 mmHg 86%
    13:00 +24°C° 0 mm 2 mps 743 mmHg 84%
    14:00 +24°C° 0 mm 2 mps 743 mmHg 84%
    15:00 +24°C° 0 mm 2 mps 742 mmHg 83%
    16:00 +24°C° 0 mm 2 mps 742 mmHg 83%
    17:00 +23°C° 0 mm 2 mps 742 mmHg 87%
    18:00 +23°C° 0 mm 2 mps 742 mmHg 90%
    19:00 +21°C° 0 mm 2 mps 742 mmHg 94%
    20:00 +22°C° 0.1 mm 1 mps 743 mmHg 94%
    21:00 +22°C° 0.1 mm 1 mps 743 mmHg 95%
    22:00 +22°C° 0.1 mm 1 mps 743 mmHg 95%
    23:00 +22°C° 0.2 mm 1 mps 743 mmHg 96%

    Tomorrow, 25 September, Tuesday

    Time Temperature Precipitation Wind Pressure Humidity
    00:00 +21°C° 0.2 mm 1 mps 743 mmHg 97%
    01:00 +21°C° 0.2 mm 1 mps 743 mmHg 98%
    02:00 +21°C° 0 mm 1 mps 743 mmHg 98%
    03:00 +21°C° 0 mm 1 mps 742 mmHg 98%
    04:00 +21°C° 0 mm 1 mps 742 mmHg 98%
    05:00 +22°C° 0 mm 1 mps 742 mmHg 98%
    06:00 +22°C° 0 mm 1 mps 743 mmHg 98%
    07:00 +22°C° 0 mm 1 mps 743 mmHg 98%
    08:00 +23°C° 0 mm 1 mps 743 mmHg 94%
    09:00 +24°C° 0 mm 1 mps 743 mmHg 90%
    10:00 +25°C° 0 mm 1 mps 743 mmHg 87%
    11:00 +27°C° 0 mm 1 mps 743 mmHg 80%
    12:00 +28°C° 0 mm 1 mps 743 mmHg 73%
    13:00 +28°C° 0 mm 0 mps 742 mmHg 66%
    14:00 +28°C° 0 mm 0 mps 742 mmHg 65%
    15:00 +28°C° 0 mm 0 mps 741 mmHg 64%
    16:00 +30°C° 0 mm 1 mps 740 mmHg 63%
    17:00 +28°C° 0 mm 1 mps 740 mmHg 69%
    18:00 +26°C° 0 mm 1 mps 741 mmHg 75%
    19:00 +25°C° 0 mm 1 mps 741 mmHg 81%
    20:00 +24°C° 0 mm 1 mps 741 mmHg 84%
    21:00 +22°C° 0 mm 0 mps 741 mmHg 86%
    22:00 +21°C° 0 mm 0 mps 741 mmHg 88%
    23:00 +21°C° 0 mm 0 mps 741 mmHg 90%

    Day after tomorrow, 26 September, Wednesday

    Time Temperature Precipitation Wind Pressure Humidity
    00:00 +20°C° 0 mm 0 mps 740 mmHg 91%
    01:00 +20°C° 0 mm 0 mps 740 mmHg 92%
    02:00 +20°C° 0 mm 0 mps 740 mmHg 92%
    03:00 +20°C° 0 mm 0 mps 739 mmHg 93%
    04:00 +22°C° 0 mm 1 mps 739 mmHg 93%
    05:00 +22°C° 0 mm 1 mps 739 mmHg 93%
    06:00 +22°C° 0 mm 1 mps 739 mmHg 93%
    07:00 +22°C° 0 mm 1 mps 739 mmHg 92%
    08:00 +24°C° 0 mm 2 mps 740 mmHg 85%
    09:00 +26°C° 0 mm 2 mps 740 mmHg 77%
    10:00 +28°C° 0 mm 3 mps 740 mmHg 69%
    11:00 +30°C° 0 mm 3 mps 739 mmHg 66%
    12:00 +32°C° 0 mm 4 mps 739 mmHg 63%
    13:00 +33°C° 0 mm 4 mps 739 mmHg 60%
    14:00 +31°C° 1.3 mm 3 mps 738 mmHg 65%
    15:00 +31°C° 1.3 mm 3 mps 737 mmHg 70%
    16:00 +30°C° 1.3 mm 3 mps 737 mmHg 75%
    17:00 +29°C° 3 mm 3 mps 737 mmHg 79%
    18:00 +27°C° 3 mm 3 mps 737 mmHg 83%
    19:00 +26°C° 3 mm 3 mps 738 mmHg 88%
    20:00 +25°C° 2 mm 2 mps 738 mmHg 89%
    21:00 +25°C° 2 mm 2 mps 738 mmHg 90%
    22:00 +24°C° 2 mm 1 mps 739 mmHg 91%
    23:00 +24°C° 0.2 mm 1 mps 738 mmHg 92%

    27 September, Thursday

    Time Temperature Precipitation Wind Pressure Humidity
    00:00 +24°C° 0.2 mm 1 mps 738 mmHg 92%
    01:00 +21°C° 0.2 mm 0 mps 738 mmHg 93%
    02:00 +21°C° 0.1 mm 0 mps 738 mmHg 93%
    03:00 +21°C° 0.1 mm 0 mps 738 mmHg 94%
    04:00 +20°C° 0.1 mm 0 mps 738 mmHg 94%
    05:00 +21°C° 0.2 mm 0 mps 738 mmHg 94%
    06:00 +21°C° 0.2 mm 0 mps 738 mmHg 94%
    07:00 +21°C° 0.2 mm 0 mps 739 mmHg 94%
    08:00 +22°C° 0.2 mm 0 mps 739 mmHg 90%
    09:00 +26°C° 0.2 mm 1 mps 739 mmHg 85%
    10:00 +27°C° 0.2 mm 1 mps 739 mmHg 80%
    11:00 +28°C° 0.2 mm 1 mps 739 mmHg 78%
    12:00 +28°C° 0.2 mm 1 mps 738 mmHg 75%
    13:00 +29°C° 0.2 mm 2 mps 738 mmHg 73%
    14:00 +28°C° 1 mm 2 mps 738 mmHg 78%
    15:00 +27°C° 1 mm 1 mps 738 mmHg 82%
    16:00 +27°C° 1 mm 1 mps 737 mmHg 87%
    17:00 +26°C° 0.7 mm 1 mps 738 mmHg 88%
    18:00 +25°C° 0.7 mm 1 mps 738 mmHg 89%
    19:00 +24°C° 0.7 mm 2 mps 738 mmHg 90%
    20:00 +24°C° 0.5 mm 1 mps 738 mmHg 91%
    21:00 +24°C° 0.5 mm 1 mps 739 mmHg 92%
    22:00 +23°C° 0.5 mm 1 mps 739 mmHg 93%
    23:00 +23°C° 0.4 mm 1 mps 739 mmHg 93%

    28 September, Friday

    Time Temperature Precipitation Wind Pressure Humidity
    00:00 +23°C° 0.4 mm 1 mps 739 mmHg 92%
    01:00 +23°C° 0.4 mm 1 mps 738 mmHg 92%
    02:00 +22°C° 0 mm 1 mps 738 mmHg 93%
    03:00 +22°C° 0 mm 1 mps 739 mmHg 93%
    04:00 +22°C° 0 mm 1 mps 739 mmHg 94%
    05:00 +22°C° 0 mm 1 mps 739 mmHg 94%
    06:00 +22°C° 0 mm 1 mps 739 mmHg 94%
    07:00 +22°C° 0 mm 1 mps 740 mmHg 93%
    08:00 +23°C° 0 mm 1 mps 740 mmHg 85%
    09:00 +25°C° 0 mm 1 mps 741 mmHg 77%
    10:00 +27°C° 0 mm 1 mps 741 mmHg 69%
    11:00 +28°C° 0 mm 1 mps 741 mmHg 64%
    12:00 +29°C° 0 mm 1 mps 741 mmHg 60%
    13:00 +30°C° 0 mm 1 mps 741 mmHg 55%
    14:00 +30°C° 0.1 mm 1 mps 741 mmHg 58%
    15:00 +29°C° 0.1 mm 1 mps 741 mmHg 61%
    16:00 +29°C° 0.1 mm 1 mps 741 mmHg 64%
    17:00 +27°C° 0.1 mm 1 mps 741 mmHg 69%
    18:00 +25°C° 0.1 mm 2 mps 742 mmHg 75%
    19:00 +23°C° 0.1 mm 2 mps 742 mmHg 81%
    20:00 +21°C° 0 mm 2 mps 743 mmHg 82%
    21:00 +20°C° 0 mm 2 mps 743 mmHg 83%
    22:00 +20°C° 0 mm 2 mps 744 mmHg 84%
    23:00 +19°C° 0 mm 2 mps 744 mmHg 84%

    29 September, Saturday

    Time Temperature Precipitation Wind Pressure Humidity
    00:00 +18°C° 0 mm 2 mps 743 mmHg 84%
    01:00 +18°C° 0 mm 2 mps 743 mmHg 84%
    02:00 +18°C° 0 mm 1 mps 744 mmHg 84%
    03:00 +18°C° 0 mm 1 mps 744 mmHg 84%
    04:00 +16°C° 0 mm 1 mps 744 mmHg 85%
    05:00 +16°C° 0 mm 2 mps 745 mmHg 85%
    06:00 +16°C° 0 mm 2 mps 745 mmHg 85%
    07:00 +16°C° 0 mm 2 mps 745 mmHg 85%
    08:00 +18°C° 0 mm 2 mps 746 mmHg 77%
    09:00 +20°C° 0 mm 2 mps 746 mmHg 69%
    10:00 +23°C° 0 mm 2 mps 747 mmHg 62%
    11:00 +24°C° 0 mm 2 mps 746 mmHg 58%
    12:00 +25°C° 0 mm 2 mps 746 mmHg 55%
    13:00 +26°C° 0 mm 2 mps 746 mmHg 52%
    14:00 +26°C° 0 mm 2 mps 745 mmHg 53%
    15:00 +26°C° 0 mm 2 mps 745 mmHg 55%
    16:00 +26°C° 0 mm 2 mps 745 mmHg 56%
    17:00 +24°C° 0 mm 2 mps 745 mmHg 63%
    18:00 +22°C° 0 mm 1 mps 745 mmHg 70%
    19:00 +21°C° 0 mm 1 mps 745 mmHg 77%
    20:00 +20°C° 0 mm 1 mps 745 mmHg 80%
    21:00 +19°C° 0 mm 1 mps 746 mmHg 82%
    22:00 +19°C° 0 mm 1 mps 746 mmHg 85%
    23:00 +18°C° 0 mm 1 mps 746 mmHg 86%
    Show more